Regional Weather Roundup
Issued by NWS

Home | Current Version | Previous Version | Graphics & Text | Print | Product List | Glossary On
Versions: 1 2 3 4 5 6 7 8 9 10 11 12 13 14 15 16 17 18 19 20 21 22 23 24 25 26 27 28
000
ASUS43 KDMX 300907
RWRIA

WEATHER ROUNDUP FOR IOWA
NATIONAL WEATHER SERVICE DES MOINES IA
400 AM CDT THU OCT 30 2014

NOTE: "FAIR" INDICATES FEW OR NO CLOUDS BELOW 12,000 FEET WITH NO
SIGNIFICANT WEATHER AND/OR OBSTRUCTIONS TO VISIBILITY.

* - THESE STATIONS ARE NOT NWS STATIONS...THUS NOT UNDER NWS
QUALITY CONTROL.  THEY ALSO DO NOT REPORT WEATHER SUCH
AS PRECIPITATION OR FOG.

IAZ001>003-012>014-020>022-031>034-043>046-301000-
   NORTHWEST IOWA

CITY           SKY/WX    TMP DP  RH WIND       PRES   REMARKS
CARROLL *      CLOUDY    41  37  87 NE5       30.03S
CHEROKEE *     MOCLDY    43  36  75 S7        29.99S
DENISON *      CLOUDY    45  34  65 E8        29.97F
LE MARS *      PTCLDY    43  34  70 W5        29.99R
ORANGE CITY *  CLOUDY    46  34  61 S3        29.98S
SHELDON *      CLOUDY    45  34  65 SE6       29.97F
SIOUX CITY     CLOUDY    43  35  73 E5        29.99S
SPENCER        CLOUDY    44  34  67 SE5       29.99F
STORM LAKE *   MOCLDY    45  34  65 S10       29.98F
$$

IAZ055>058-069>071-079>083-090>094-301000-
   SOUTHWEST IOWA

CITY           SKY/WX    TMP DP  RH WIND       PRES   REMARKS
ATLANTIC *     CLOUDY    45  34  65 SW3       30.00F
AUDUBON *      CLOUDY    43  36  75 CALM      30.03S
CLARINDA *     MOCLDY    46  36  66 S6        30.03F
COUNCIL BLFS * CLEAR     45  34  65 S10       29.98F
CRESTON *      CLOUDY    41  36  81 SE8       30.03F
HARLAN  *      PTCLDY    41  37  87 CALM      30.03F
LAMONI         MOCLDY    43  33  68 SE8       30.05F
RED OAK *      CLOUDY    46  34  61 S5        30.01F
SHENANDOAH *   PTCLDY    46  36  66 CALM      30.02S
$$

IAZ047>049-059>061-072>074-084-301000-
   CENTRAL IOWA

CITY           SKY/WX    TMP DP  RH WIND       PRES   REMARKS
AMES           CLOUDY    38  35  89 CALM      30.06F
ANKENY *       CLOUDY    39  36  87 CALM      30.06F
CHARITON *     CLOUDY    39  34  81 SE6       30.06F WCI  35
DES MOINES     CLOUDY    44  34  67 SE6       30.06F
GRINNELL*      MOCLDY    39  34  81 SE7       30.08F WCI  34
KNOXVILLE *    CLOUDY    39  34  81 SE8       30.06F WCI  34
MARSHALLTOWN   MOCLDY    36  33  89 SE7       30.07F WCI  30
PELLA *        MOCLDY    39  34  81 SE5       30.09F
PERRY *        CLOUDY    39  37  93 CALM      30.05F
$$

IAZ004>006-015-016-023>025-035-036-301000-
   NORTH CENTRAL IOWA

CITY           SKY/WX    TMP DP  RH WIND       PRES   REMARKS
ALGONA *       CLOUDY    43  36  75 S8        30.02F
CLARION *      CLOUDY    41  37  87 SE14      30.02F
ESTHERVILLE    CLOUDY    41  32  70 SE6       30.00F
FORT DODGE *   CLOUDY    45  36  70 SE7       30.02F
MASON CITY     MOCLDY    34  32  92 S5        30.06F WCI  30
FOREST CITY *  PTCLDY    36  36 100 SE3       30.04F
IOWA FALLS *   LGT RAIN  37  36  93 SE3       30.08F
$$

IAZ007>011-017>019-026>030-037>042-050>054-066-301000-
   NORTHEAST IOWA

CITY           SKY/WX    TMP DP  RH WIND       PRES   REMARKS
CEDAR RAPIDS   PTCLDY    31  31 100 SE5       30.09F WCI  26
CHARLES CITY * CLOUDY    37  34  87 S7        30.07F WCI  32
CLINTON *      CLEAR     30  27  86 CALM      30.14F
DECORAH *      MOCLDY    36  32  87 S6        30.07F WCI  31
DUBUQUE        PTCLDY    33  30  88 CALM      30.10F
MONTICELLO *   CLEAR     30  30 100 CALM      30.11S
OELWEIN *      CLOUDY    34  32  93 SE7       30.09F WCI  28
WATERLOO       MOCLDY    35  32  88 S3        30.09R
$$

IAZ064-065-067-068-078-301000-
   EAST CENTRAL IOWA

CITY           SKY/WX    TMP DP  RH WIND       PRES   REMARKS
DAVENPORT      CLEAR     33  28  81 SE3       30.12F
IOWA CITY      PTCLDY    34  33  96 CALM      30.12F
MT. PLEASANT * PTCLDY    34  34 100 SE5       30.12F WCI  30
MUSCATINE *    PTCLDY    32  30  93 CALM      30.12F
QUAD CITIES    CLEAR     31  28  89 CALM      30.12F
$$

IAZ062-063-075>077-085>089-095>099-301000-
   SOUTHEAST IOWA

CITY           SKY/WX    TMP DP  RH WIND       PRES   REMARKS
BURLINGTON     CLEAR     37  35  92 CALM      30.12F
FAIRFIELD *    PTCLDY    37  32  81 S6        30.11F WCI  33
FORT MADISON * CLEAR     39  36  87 S5        30.13S
KEOKUK *       MIX PCPN  37  36  93 SE5       30.12S WCI  34
OSKALOOSA *      N/A     36  32  87 SE7       30.10S WCI  30
CENTERVILLE *  MOCLDY    39  37  93 SE3       30.09F
OTTUMWA        MOCLDY    40  34  79 S7        30.09F
WASHINGTON *   CLEAR     34  34 100 S6        30.11S WCI  29
$$

ABBREVIATIONS USED IN REMARKS
   TC - TEMPERATURES IN CELSIUS
  WCI - WIND CHILL INDEX
   HX - HEAT INDEX
  VSB - VISIBILITY
$$




USA.gov is the U.S. government's official web portal to all federal, state and local government web resources and services.